Theta_e
313 313 312 312 315 319 320 318 319 321 320 322 322 319 318 320 323 319 319 320 316 332 345 344 342 340 345 351 353 350 348 351 353 349 350 352 347 347 347 345 347 347 347 344 343 341 340 340 339 338 338 337 336 335 334 334 334 334 333 332 331 328 323 320 321 323 327 328 322 321 325 330 334 334 330 328 323 318 319 320 318 316 316 315 316 316 316 316 315 315 314 314 315 320 324 327 329
313 313 312 313 317 320 320 318 322 322 320 320 318 319 319 321 322 318 320 318 320 340 348 345 345 344 345 345 347 347 349 350 349 348 350 350 348 349 346 345 346 347 346 342 342 340 340 339 338 339 338 337 336 335 335 334 334 334 333 333 330 329 325 320 320 323 326 327 322 317 320 328 333 332 330 327 322 318 319 320 319 318 317 315 316 316 316 316 315 315 315 316 319 323 326 328 330
313 313 314 317 319 320 320 319 324 323 320 319 317 318 318 319 320 318 320 316 322 344 348 344 347 346 346 351 352 350 351 349 347 348 349 349 350 349 346 345 345 346 343 341 341 340 340 339 338 338 338 337 336 336 335 334 334 334 333 333 331 329 327 322 319 319 321 322 320 316 318 328 333 331 332 331 323 319 320 320 320 319 317 316 316 316 316 315 315 315 316 318 322 325 326 328 329
313 314 317 320 319 319 321 322 327 324 321 320 317 319 319 318 320 319 319 316 322 342 348 345 349 346 348 356 354 351 352 348 349 349 349 350 350 349 346 344 345 344 341 341 341 340 340 339 339 339 338 337 336 336 335 335 334 334 333 333 332 329 328 325 321 318 317 317 317 316 317 325 332 331 330 328 321 319 321 321 320 319 316 315 316 316 315 315 315 315 316 319 323 325 326 328 329
312 316 319 320 318 318 320 321 325 321 319 321 319 321 322 320 320 320 318 319 323 337 346 346 350 348 347 351 349 352 353 349 349 348 349 351 350 349 345 343 343 341 340 341 340 340 340 339 339 339 338 337 337 336 335 335 334 334 334 334 333 330 329 327 325 322 319 317 317 317 317 320 324 324 321 319 319 319 319 319 319 318 317 315 316 315 314 314 314 315 316 319 323 325 326 327 329
314 318 321 321 319 317 319 320 322 320 319 321 320 321 323 320 319 319 317 321 329 338 344 347 348 348 348 349 348 350 350 348 349 349 350 350 350 348 344 342 341 340 341 340 339 339 339 339 339 338 338 338 337 337 336 335 334 334 334 334 333 332 331 328 327 326 323 321 319 319 319 319 318 318 317 316 317 318 318 317 317 317 317 316 316 315 314 314 314 315 316 320 324 326 327 327 329
317 320 321 320 319 316 321 323 321 319 319 319 319 320 320 318 318 319 318 320 334 344 345 347 346 349 350 349 350 349 348 348 348 349 350 350 350 347 342 341 340 340 339 338 339 338 339 339 338 338 338 338 337 337 336 335 335 334 334 333 333 334 334 331 328 326 326 324 322 323 325 324 324 321 319 318 317 317 320 320 319 317 316 316 316 316 315 314 314 315 317 321 325 327 328 327 327
318 319 317 319 320 317 320 323 320 318 319 319 317 319 318 319 318 319 320 317 330 343 346 347 344 352 352 348 351 349 349 348 348 350 350 350 348 345 342 341 340 339 338 337 338 338 338 338 338 338 337 338 338 337 337 336 335 334 334 333 333 335 336 334 328 325 326 324 324 328 331 329 328 326 324 325 323 321 323 323 320 318 316 316 316 316 316 314 314 315 317 321 325 327 328 327 327
318 316 313 317 319 317 319 319 318 317 318 318 316 317 317 318 318 317 320 316 324 340 346 347 343 354 354 348 350 349 349 349 349 351 349 349 347 345 343 341 339 337 336 337 337 337 337 338 337 337 337 338 338 338 337 337 336 334 334 333 334 334 336 334 325 322 323 322 323 326 331 329 326 328 329 330 329 328 326 323 320 319 317 316 316 316 316 316 314 315 319 321 324 327 328 328 327
316 314 313 317 318 317 318 316 316 316 315 315 315 315 315 316 316 315 316 314 325 343 347 345 345 351 351 348 350 348 349 349 349 350 348 348 346 345 342 340 338 335 335 335 336 336 336 337 336 336 337 338 338 338 337 337 336 335 334 333 333 334 335 332 321 318 318 318 319 322 327 327 325 328 330 330 331 330 327 325 323 322 320 318 317 317 318 317 315 316 319 321 323 326 327 328 328
314 311 313 316 318 318 318 317 317 317 315 314 315 315 316 316 315 314 314 318 332 346 346 346 348 348 349 349 349 348 349 349 349 349 347 346 345 343 341 338 336 334 334 334 334 334 335 336 336 335 336 337 337 337 336 336 336 335 333 333 333 333 334 328 318 315 315 314 316 321 325 326 326 327 329 330 330 329 328 328 328 327 325 325 326 323 318 318 317 315 317 320 323 327 328 330 330
313 313 316 319 320 320 319 318 318 318 316 316 317 316 317 316 316 315 315 328 343 346 344 345 348 348 350 350 348 348 348 348 349 348 347 345 343 342 339 336 334 333 333 333 333 333 334 334 335 335 336 336 336 336 335 334 335 335 333 333 333 332 331 323 316 314 314 314 316 323 326 325 326 327 328 329 329 330 330 331 333 331 325 326 331 327 318 317 318 316 316 318 322 327 330 331 331
314 314 318 320 320 321 318 317 319 319 317 316 316 315 316 313 315 314 316 336 345 346 345 343 346 347 349 350 349 348 348 348 348 348 346 344 342 339 337 334 333 333 332 332 331 332 332 333 334 334 335 336 335 335 334 333 334 334 333 332 331 331 329 319 315 315 314 316 320 325 327 327 328 328 329 329 330 332 333 333 334 328 320 319 323 322 317 316 317 317 316 317 321 325 330 332 333
314 314 316 318 318 319 317 316 318 317 316 316 315 315 315 315 316 314 325 345 346 343 343 342 344 348 350 351 350 347 347 348 347 347 344 341 339 336 335 333 333 333 331 331 330 331 331 333 333 334 335 335 335 334 334 333 333 334 333 332 331 332 328 317 316 318 318 321 327 328 328 329 328 329 331 331 333 333 333 333 329 321 317 316 315 316 316 316 316 318 317 317 319 322 329 333 334
314 314 317 318 318 318 316 316 317 315 316 316 315 314 314 320 328 327 335 350 348 342 343 345 345 348 351 351 350 348 347 347 347 346 342 338 336 334 333 333 333 332 330 329 329 330 331 332 332 333 335 334 334 334 333 333 333 333 333 332 332 334 327 317 319 323 323 327 332 331 330 330 327 328 331 333 334 335 332 327 322 317 317 316 315 315 315 316 316 317 318 318 318 319 327 333 335
315 315 316 316 318 318 316 317 316 315 317 316 314 316 313 320 338 341 340 344 346 345 345 347 345 344 347 348 350 348 347 347 346 345 340 336 333 333 333 333 333 331 329 328 329 331 331 332 332 334 335 333 334 334 334 334 334 334 333 333 333 334 325 318 323 328 328 329 333 333 332 330 325 325 330 333 333 332 328 322 319 319 319 318 317 315 315 316 315 315 317 318 318 319 323 330 335
315 315 316 316 316 316 316 317 317 317 317 316 314 315 312 320 341 346 343 343 346 346 345 346 345 343 345 347 349 348 347 346 345 345 342 337 335 334 333 333 332 329 328 328 329 331 332 333 333 334 334 334 334 335 335 334 334 334 333 333 334 334 324 319 324 329 332 331 332 333 332 330 324 322 325 328 328 326 323 320 320 320 320 320 318 316 315 316 316 315 316 317 318 318 320 325 332
317 317 317 316 316 315 316 318 317 316 316 315 314 314 313 323 342 345 345 347 345 346 346 346 346 345 346 347 349 348 346 345 345 346 345 344 342 340 337 334 332 330 328 329 331 331 332 333 333 334 334 334 334 334 334 334 334 334 334 333 334 334 327 323 323 327 333 332 332 333 331 330 328 324 323 325 326 322 321 321 321 321 321 320 318 317 316 316 316 315 315 316 317 318 318 320 327
317 317 316 316 315 313 314 315 314 314 315 314 313 315 313 319 332 340 348 348 346 350 349 346 347 347 348 349 349 348 346 345 345 346 347 347 347 346 343 338 333 331 329 329 332 331 331 332 332 333 334 334 333 333 334 334 333 333 334 333 334 334 329 326 325 327 332 333 332 331 329 330 330 329 327 326 324 322 321 321 322 322 322 320 318 318 318 316 316 316 317 318 318 319 318 318 322
317 317 317 316 314 313 313 313 313 313 314 313 314 314 313 315 318 333 349 348 347 352 350 347 348 348 349 349 349 348 347 346 345 346 347 347 347 347 345 341 335 332 330 330 332 331 330 331 331 332 333 333 332 333 333 333 333 333 334 333 333 334 329 326 328 330 332 334 332 330 329 329 329 330 329 325 323 322 322 322 322 322 322 321 319 318 318 317 318 319 321 322 322 321 320 319 320
316 317 319 317 313 313 314 314 314 315 315 314 313 313 315 315 315 332 345 348 350 349 346 345 347 348 349 349 349 348 348 347 346 347 347 347 347 345 343 340 335 332 332 332 332 330 330 331 331 332 332 332 331 331 332 332 333 333 334 334 333 334 329 326 329 331 333 334 332 330 329 327 327 329 329 324 323 323 322 323 323 322 321 320 319 318 318 318 320 322 324 324 324 322 321 322 322
315 315 316 315 313 313 314 314 315 315 315 313 313 314 315 315 322 339 344 346 349 345 341 340 342 346 347 348 349 348 349 348 348 348 347 347 346 345 342 339 334 332 332 334 333 332 332 332 333 333 332 331 330 331 331 331 332 332 333 334 333 333 329 326 329 331 333 334 331 329 330 328 327 328 327 325 324 324 324 324 324 323 322 319 318 319 319 320 321 324 327 327 327 325 323 322 324
317 317 314 314 314 313 314 314 315 314 314 312 313 315 315 314 318 334 341 339 338 335 336 341 341 344 345 348 348 348 349 348 349 348 348 347 344 344 343 339 336 332 334 336 336 335 335 335 335 335 333 331 331 331 330 330 331 331 332 332 331 330 328 326 328 331 333 334 330 329 331 329 326 327 326 326 325 324 324 325 325 324 323 322 320 319 320 323 326 327 329 329 328 328 326 323 322
317 317 315 315 315 313 314 315 315 315 313 313 314 313 314 314 313 325 335 331 328 333 338 343 344 346 346 348 347 348 349 348 349 348 347 343 341 343 340 337 335 335 338 338 337 337 336 337 337 335 334 334 333 332 331 330 329 329 330 329 328 327 326 328 330 332 333 332 329 330 331 327 326 327 327 327 325 324 326 326 326 326 325 326 326 324 323 325 328 329 329 329 328 328 328 326 323
315 315 314 315 315 314 316 315 314 314 313 313 314 313 313 315 314 318 327 329 331 336 340 345 345 346 347 347 347 348 348 348 348 345 341 338 338 340 339 337 336 337 339 339 338 338 338 338 337 337 336 336 336 334 333 331 328 328 328 328 327 326 327 330 332 333 332 330 329 330 329 327 327 327 328 328 327 326 327 328 329 329 328 327 328 329 327 327 329 329 329 329 329 329 329 329 327
315 314 314 313 314 314 315 314 313 313 313 313 313 314 314 315 314 315 327 340 341 339 340 345 346 346 347 347 346 347 348 347 346 341 338 337 337 338 338 336 336 338 339 338 337 337 339 339 338 338 337 337 336 336 335 332 330 329 329 327 326 327 329 331 332 332 330 328 329 329 329 328 328 328 329 328 327 328 328 328 328 328 328 326 326 328 328 328 328 329 329 329 329 329 329 330 330
314 313 312 312 312 312 313 312 313 312 312 313 313 315 315 315 314 317 335 347 345 342 344 346 346 346 347 346 346 347 347 346 344 341 339 341 339 337 334 332 335 338 336 333 332 334 338 339 338 338 337 337 336 336 335 334 333 332 330 327 326 327 330 331 330 330 328 327 328 329 329 329 328 329 328 327 327 328 327 326 327 327 326 325 326 327 328 328 328 328 328 327 327 328 330 330 330
313 312 312 312 311 311 312 310 311 312 312 314 314 314 313 315 313 316 336 348 345 344 346 347 346 345 346 346 346 347 346 346 345 342 339 340 338 333 330 329 333 335 332 329 329 330 333 336 338 338 337 336 336 335 335 335 334 332 330 327 326 328 330 330 329 329 327 327 328 329 329 328 329 329 327 328 328 328 327 327 328 327 326 326 327 327 328 328 328 328 327 326 326 328 330 329 330
312 313 312 314 313 312 312 311 311 312 313 315 313 314 314 316 315 316 337 347 345 345 346 347 346 346 346 346 347 347 346 347 345 342 340 338 333 330 329 329 330 331 330 328 327 326 328 332 336 336 336 335 335 335 335 335 333 332 330 329 328 329 330 330 329 328 326 327 328 329 329 328 327 327 327 328 329 329 328 328 329 328 327 328 328 328 329 329 328 328 327 326 326 328 329 329 330
312 313 313 314 315 315 313 311 313 312 313 315 313 314 317 320 315 317 338 347 346 346 347 347 347 347 346 347 347 346 346 347 345 342 342 339 333 331 332 330 329 330 330 328 328 328 329 330 332 335 334 334 335 335 335 334 333 331 330 329 330 330 329 330 330 327 325 327 328 328 328 326 326 326 327 328 328 328 328 328 328 328 328 328 328 328 329 329 329 329 328 326 326 327 328 329 330
314 312 314 314 313 317 315 310 313 314 314 315 313 315 318 321 316 315 337 346 346 346 347 346 346 347 346 347 347 345 345 347 346 343 342 341 338 336 334 330 329 331 329 329 329 329 332 332 332 334 333 333 334 334 334 333 332 330 328 329 330 330 329 329 328 326 326 328 328 327 327 326 327 327 328 328 328 327 327 327 327 328 328 328 328 328 328 328 328 328 328 327 326 325 326 329 330
317 312 316 318 313 316 316 311 313 314 315 314 312 317 317 319 318 313 332 345 345 345 347 346 346 346 346 347 345 343 344 348 346 344 343 342 341 338 333 329 329 331 329 329 329 329 333 333 333 334 332 332 333 333 333 332 330 329 329 329 329 329 328 327 327 326 327 327 327 326 326 327 328 329 329 328 328 327 327 326 327 328 328 327 327 327 327 328 327 326 326 326 326 325 325 327 328
321 315 316 320 314 315 316 312 312 312 314 314 312 318 318 318 318 311 327 344 344 343 345 345 345 345 345 345 344 342 343 346 346 345 345 343 342 338 333 330 329 330 329 329 330 330 334 334 334 334 331 330 332 332 332 331 330 329 328 328 329 329 328 327 326 326 326 326 326 325 326 328 328 329 329 328 328 327 327 327 327 328 328 327 327 327 327 327 326 325 325 326 327 326 325 325 327
320 316 316 319 316 314 315 314 313 311 313 315 312 316 317 318 318 311 324 342 341 340 344 343 345 344 343 343 343 344 343 344 345 345 345 344 342 339 335 332 330 330 330 331 332 332 334 334 334 334 331 330 331 331 332 331 330 329 328 327 328 328 328 328 325 325 325 325 326 327 328 329 329 329 329 327 328 328 327 327 328 328 327 327 327 327 327 327 326 325 326 326 327 326 325 326 326
316 316 317 319 317 314 314 314 313 313 313 315 314 315 316 318 317 310 320 339 339 338 342 343 344 341 340 342 343 344 343 344 345 344 345 344 342 340 336 333 332 332 332 333 334 334 334 334 334 334 331 330 331 332 331 330 330 329 328 328 328 328 328 327 325 325 326 326 328 329 329 330 329 329 328 327 328 328 327 327 327 328 327 328 328 327 327 327 326 326 325 325 326 326 326 326 326
314 316 318 318 315 314 313 312 313 314 313 314 314 314 314 315 317 312 316 333 338 336 341 342 341 339 339 342 343 344 344 344 345 344 344 342 341 339 337 335 333 333 333 334 335 335 335 334 334 333 330 330 331 332 331 330 329 329 328 328 328 329 327 326 326 327 328 329 329 330 330 329 328 328 328 328 328 328 328 327 328 328 327 327 327 327 327 327 327 326 326 325 325 326 326 327 327
313 314 315 314 313 313 313 312 314 314 314 317 317 315 315 314 316 313 312 327 336 335 338 340 338 337 338 341 342 344 344 342 344 344 343 341 339 337 336 335 334 334 333 333 334 335 336 334 332 332 330 329 330 331 331 330 329 328 328 328 328 328 327 326 327 328 329 330 330 329 329 327 327 328 328 328 328 328 328 328 328 328 327 327 327 327 328 328 327 327 327 326 326 326 326 327 327
313 314 313 312 313 313 313 313 314 314 315 320 319 316 316 313 316 315 312 325 335 334 336 338 337 337 338 341 341 342 342 342 343 343 341 339 337 336 336 335 335 334 332 331 333 335 336 333 332 331 330 329 330 331 331 329 329 328 328 328 328 328 327 327 326 327 329 329 328 328 327 327 327 327 327 327 328 328 328 328 327 327 327 328 327 327 328 327 327 327 327 327 327 326 326 327 327
315 314 314 315 315 314 314 316 318 316 316 322 321 317 316 317 325 327 320 323 332 334 336 337 337 337 338 340 341 341 341 342 343 341 340 337 335 335 335 335 335 334 332 331 333 335 335 333 332 332 330 329 330 331 330 329 328 328 328 328 328 328 327 327 326 328 329 328 327 327 327 327 327 326 326 327 327 328 327 327 326 327 327 327 327 327 328 327 327 327 328 328 328 326 326 327 328
317 316 315 316 315 314 316 319 321 318 317 320 319 317 318 320 329 335 327 322 327 333 336 337 338 338 339 340 340 341 342 342 342 340 338 336 335 334 334 334 335 334 332 332 334 334 333 332 333 332 330 330 330 330 330 328 329 328 328 329 328 328 327 327 328 328 327 327 327 326 325 325 326 325 326 326 327 327 326 326 326 326 326 326 326 326 327 327 327 327 328 328 328 327 326 327 328
319 319 317 316 315 315 315 318 321 321 321 320 317 319 321 320 328 337 331 326 329 333 335 336 337 338 339 339 339 341 341 341 340 338 337 335 334 334 334 334 334 334 333 332 333 334 333 332 333 332 331 331 330 329 329 329 329 329 329 329 329 329 328 329 329 328 327 326 326 325 325 325 325 325 325 326 327 326 325 325 325 325 325 325 325 325 325 325 326 327 327 327 327 327 326 326 327
318 320 319 317 316 316 316 318 319 320 322 322 318 317 318 320 327 334 332 331 333 333 334 335 336 337 337 337 338 339 340 340 339 337 335 334 333 333 334 333 334 334 332 332 333 333 333 333 332 332 331 331 329 328 329 330 329 328 328 328 328 328 328 330 330 328 327 327 326 325 325 325 325 325 325 325 325 324 324 324 324 324 323 324 324 324 324 324 325 326 327 327 327 327 326 326 326
315 323 324 317 316 317 318 319 317 317 321 321 321 319 318 323 327 329 331 334 334 334 334 335 335 335 335 336 337 338 338 338 336 335 334 333 333 333 332 332 332 333 332 333 334 333 333 333 332 332 332 330 329 328 329 331 328 326 327 328 327 327 328 330 329 328 327 325 324 323 322 323 324 324 322 321 321 321 319 319 320 320 320 320 322 322 323 323 324 325 326 326 326 327 326 326 325
318 328 327 319 318 318 319 318 317 322 322 320 324 325 323 325 326 327 332 334 335 335 334 333 333 333 334 335 336 337 337 336 335 334 333 333 333 333 332 331 331 332 332 333 334 333 333 333 332 332 331 329 329 330 331 331 327 326 329 328 327 327 328 328 327 326 324 323 322 322 322 323 323 322 321 319 318 318 316 317 318 318 318 319 319 320 321 322 322 324 325 325 326 326 326 325 324
319 326 324 318 317 317 319 318 317 322 319 317 326 328 322 322 324 327 331 333 336 337 334 333 332 332 333 334 335 336 335 334 333 333 333 333 332 332 331 331 331 332 332 332 333 334 333 333 333 332 331 330 331 331 331 329 325 325 328 328 326 326 325 324 324 323 322 322 322 322 323 322 322 322 321 319 319 318 317 318 318 318 318 317 316 317 319 321 322 324 324 324 325 325 325 324 324
317 320 318 316 317 319 318 317 317 319 316 316 327 331 324 321 324 327 331 333 336 335 333 333 331 331 333 333 334 334 333 333 333 333 333 332 331 332 332 331 332 332 332 332 332 333 333 334 333 331 329 330 330 330 329 327 324 324 326 326 325 325 323 321 320 321 321 322 322 323 322 321 322 323 320 319 320 319 319 320 320 319 319 317 316 316 319 321 322 323 323 324 325 325 324 323 323
315 317 316 313 321 324 321 325 325 319 319 322 328 331 326 321 324 329 332 332 332 333 333 331 330 331 331 332 333 332 333 333 332 332 332 331 331 332 332 331 331 332 331 332 331 332 332 333 333 330 327 328 329 329 328 326 324 323 324 325 325 324 323 320 318 318 321 322 323 323 323 323 324 324 320 318 320 320 320 320 319 319 319 317 317 318 320 321 321 321 322 324 324 324 323 323 323
314 319 317 315 324 325 322 329 325 319 324 328 328 326 324 322 323 328 332 330 328 331 333 332 331 329 329 331 331 331 332 331 330 330 330 331 332 332 332 331 331 331 331 331 330 330 331 332 332 330 328 327 328 329 327 325 324 322 324 326 326 325 323 319 316 318 321 323 323 323 324 325 324 323 320 317 318 319 319 319 318 318 318 316 317 319 320 319 318 319 322 323 324 324 323 323 323
315 319 319 317 321 320 322 328 324 322 326 323 324 323 322 326 326 327 331 330 328 329 330 331 330 329 329 331 331 330 330 329 328 329 330 331 332 332 331 331 331 331 331 330 330 330 331 332 331 330 329 327 328 329 326 325 325 323 325 328 328 327 323 319 317 319 323 324 323 323 323 323 323 323 320 316 318 320 319 319 318 318 318 315 315 317 317 316 317 319 322 323 324 323 322 322 322
313 317 319 318 320 319 323 328 323 323 323 320 323 321 321 331 330 327 329 328 328 329 329 329 328 328 330 331 332 331 329 328 328 329 330 330 331 332 331 331 331 331 331 330 329 330 330 331 330 330 330 328 328 328 326 326 326 325 327 328 328 328 324 319 318 319 322 324 323 322 322 322 322 321 318 316 319 320 320 320 319 318 317 312 312 315 315 316 318 320 322 323 323 322 321 321 321
314 318 319 319 326 325 324 327 325 323 324 324 326 320 320 332 330 326 327 327 327 329 328 329 329 328 329 330 330 330 328 328 328 329 329 330 331 332 331 331 331 331 330 329 330 330 330 330 329 328 329 329 328 327 327 328 326 326 329 329 328 328 324 320 319 318 320 321 322 322 321 320 320 318 315 317 320 320 320 320 318 318 314 308 308 311 312 314 318 320 322 323 321 319 319 319 319
316 317 317 316 324 327 324 325 327 329 327 324 325 323 324 330 328 325 327 328 328 329 328 329 329 328 329 329 329 329 329 329 328 329 329 329 331 331 330 331 330 330 330 330 330 331 330 330 329 327 328 329 328 327 328 328 327 327 329 329 328 327 323 321 321 321 322 321 321 321 319 317 316 315 315 318 320 319 320 318 318 317 311 306 306 307 307 310 313 317 320 322 320 317 316 318 319
318 315 318 319 318 324 325 322 322 327 324 319 324 330 332 332 329 325 328 330 329 329 330 330 331 330 330 329 329 329 329 329 329 330 329 329 330 330 330 330 330 331 331 330 330 331 332 331 329 328 328 329 329 328 328 328 328 328 328 328 327 324 322 323 323 324 324 321 319 320 319 316 316 316 315 317 319 319 319 318 317 313 308 305 305 305 305 306 308 311 315 318 317 316 315 316 318
321 318 321 320 316 322 329 326 325 326 323 321 326 334 336 334 331 327 327 328 327 327 328 328 329 329 329 329 330 331 331 331 331 331 331 330 330 330 329 330 330 331 330 330 330 331 332 331 330 330 330 330 330 328 327 326 327 328 328 326 325 324 324 325 325 325 322 318 318 321 320 316 315 316 314 314 317 318 318 317 313 309 305 304 304 304 304 304 305 306 308 310 311 313 314 315 316
319 320 321 321 322 326 326 324 327 325 323 322 322 327 331 330 329 328 327 326 325 324 325 327 327 325 325 325 327 329 330 330 330 331 332 332 332 331 329 329 330 330 330 330 330 330 331 331 331 331 330 330 329 327 325 323 322 324 326 325 325 326 326 326 325 323 319 316 318 320 318 313 313 313 311 310 313 315 315 313 309 306 304 303 304 303 304 304 304 305 305 305 306 309 312 313 315
317 318 321 324 330 331 324 323 325 325 325 323 320 325 330 327 324 326 326 324 324 325 326 328 326 324 324 324 325 326 327 328 329 331 332 332 332 332 329 329 329 330 330 330 330 330 330 330 330 331 330 328 327 326 324 322 321 323 326 327 327 327 326 325 322 319 316 316 318 319 314 309 309 309 309 308 309 310 310 309 307 305 304 304 304 304 304 305 305 305 305 305 304 306 309 311 314
322 323 323 321 323 323 320 321 322 325 329 327 326 330 330 325 323 325 325 323 324 325 325 325 324 324 325 324 325 326 325 327 329 330 331 331 330 330 329 329 329 330 330 330 330 330 329 329 329 329 329 327 325 324 324 323 322 325 328 328 327 327 325 323 321 318 317 318 319 317 311 308 308 307 307 306 305 306 306 307 306 305 305 305 305 306 306 306 307 307 307 306 305 305 306 308 312
327 330 324 318 319 322 322 320 320 325 329 327 328 332 328 323 323 324 324 323 323 323 322 323 323 324 325 325 326 326 325 327 327 328 329 329 329 328 328 329 330 330 330 329 330 330 329 329 328 328 328 327 326 324 323 322 322 326 328 327 326 325 323 322 320 317 318 320 320 317 313 311 308 306 305 304 304 305 306 307 306 306 306 307 307 307 307 307 308 308 308 308 307 306 306 306 309
Wind_Speed
11 11 10 10 8 7 4 3 1 2 2 2 3 2 4 5 3 3 7 4 2 5 5 5 2 7 8 7 8 8 6 1 3 3 4 11 25 24 19 22 26 30 30 31 29 28 27 26 26 25 25 24 23 22 20 19 17 16 15 14 13 13 13 14 15 17 18 18 17 17 19 20 18 16 15 15 14 14 14 15 15 15 15 15 15 14 15 18 19 19 18 18 18 17 17 17 16
12 11 10 10 8 5 3 2 1 2 2 3 4 4 5 3 2 6 8 3 3 3 9 15 14 15 15 12 8 6 7 5 1 7 13 24 29 21 20 24 28 30 31 32 31 29 28 27 26 25 24 23 23 21 20 18 17 16 15 14 14 13 14 15 16 16 17 17 17 17 19 20 17 16 15 14 14 14 15 15 14 13 14 15 16 16 17 19 19 19 19 18 18 18 17 17 16
12 11 11 9 6 4 3 2 1 1 1 5 4 4 4 2 6 8 7 6 8 10 10 12 12 11 9 7 5 3 3 3 7 17 21 26 29 25 23 26 29 30 31 33 31 30 28 27 26 25 24 23 22 20 19 17 16 16 16 15 14 13 14 15 16 16 16 16 17 17 19 20 18 17 16 15 15 14 14 13 13 12 13 15 16 16 17 19 19 19 19 18 18 18 17 16 15
12 11 9 7 4 3 4 2 1 4 3 5 4 6 4 5 8 7 8 12 12 15 10 5 5 5 5 5 5 6 3 3 13 22 24 26 27 26 26 29 31 31 32 32 31 30 28 27 25 24 23 23 22 20 18 17 16 16 16 15 14 14 13 14 15 16 16 16 17 17 19 19 18 18 18 17 15 14 13 13 12 12 12 13 16 16 17 19 19 18 19 19 18 17 16 15 15
12 11 8 6 3 1 2 1 2 3 5 4 2 6 5 7 7 6 10 19 13 16 12 8 5 5 8 7 3 4 6 9 15 21 26 28 25 26 29 31 31 32 33 32 31 29 28 26 25 24 23 23 22 20 18 17 16 16 16 15 14 14 13 13 14 14 15 15 17 17 17 17 17 17 17 17 15 14 13 12 12 11 11 12 16 17 17 18 18 18 18 18 18 17 16 15 14
11 9 6 4 1 0 1 1 2 4 6 4 3 7 7 7 6 8 14 20 10 11 10 7 6 8 9 7 5 10 11 11 17 21 26 29 26 27 30 32 32 32 32 31 30 29 28 26 25 24 23 22 21 19 18 16 16 15 15 14 14 14 12 11 12 12 13 14 15 15 14 14 14 14 13 14 14 14 13 12 11 11 11 12 15 17 17 18 19 18 18 18 18 17 16 15 13
10 8 3 2 1 1 2 3 4 5 5 5 4 8 10 11 11 9 10 12 5 5 6 7 14 14 6 5 8 9 6 8 18 22 25 27 26 28 31 32 32 32 32 31 29 28 27 25 25 24 23 22 20 19 17 16 15 15 14 13 13 13 12 11 10 10 12 12 12 13 12 12 12 11 10 10 12 13 12 12 12 11 11 11 14 16 16 18 19 18 18 19 19 18 17 15 13
9 6 2 2 1 1 1 3 4 4 5 5 5 10 14 17 16 9 6 5 3 3 6 11 13 9 2 4 6 5 7 11 18 20 23 25 27 29 30 31 31 32 31 30 28 27 26 25 25 23 23 21 20 19 17 16 15 15 14 13 12 11 11 10 9 9 10 11 11 12 12 12 12 11 10 9 10 11 12 11 11 11 11 11 13 15 16 17 19 19 19 19 19 19 18 15 13
9 4 2 2 1 1 2 3 5 4 5 6 7 13 19 24 20 11 7 6 6 4 11 12 3 3 5 9 8 7 11 14 18 21 24 26 27 28 28 30 30 32 31 29 28 27 27 25 25 23 22 21 19 18 17 16 15 14 14 13 12 11 10 9 8 9 9 10 11 12 13 12 12 12 11 10 9 9 11 11 11 11 12 12 12 15 16 17 19 20 20 19 19 19 18 16 13
8 4 1 1 1 1 4 3 4 4 6 6 8 17 22 25 21 13 10 8 6 8 12 11 1 7 11 9 8 8 12 17 21 24 25 25 26 26 28 29 28 31 31 29 28 28 27 25 24 23 21 20 19 18 17 17 15 14 14 13 12 11 10 8 8 9 9 10 11 13 13 13 13 13 12 11 10 9 9 9 10 10 11 12 12 14 16 18 19 21 20 19 19 19 18 16 13
5 2 2 2 2 2 4 4 5 5 7 5 10 22 24 25 20 13 10 7 6 9 11 8 5 14 13 7 7 9 16 20 22 24 25 24 24 26 28 28 28 29 31 30 29 28 27 26 24 23 22 20 19 19 18 17 16 15 15 14 12 11 10 8 9 9 9 10 12 13 13 14 13 12 12 11 10 10 10 9 9 8 9 10 11 12 15 17 19 21 20 19 19 19 18 16 13
4 1 3 2 2 3 4 3 5 7 8 5 8 17 19 20 16 9 6 3 7 9 10 9 12 17 10 4 9 13 21 23 22 23 23 24 24 26 27 29 29 29 30 30 29 28 27 26 25 23 22 20 20 19 18 18 17 16 15 14 13 11 10 9 9 9 10 10 12 13 13 13 12 12 12 11 10 10 11 10 10 8 7 8 10 11 13 16 17 20 20 19 19 18 18 17 14
5 2 5 2 3 3 3 3 6 7 7 5 5 12 19 16 15 12 7 5 9 8 7 9 19 17 7 5 15 19 22 24 22 21 22 23 25 27 28 29 29 28 29 28 28 28 27 26 25 23 21 20 20 19 18 18 18 17 16 15 13 12 10 10 10 10 11 11 12 13 13 13 12 12 13 12 11 11 11 11 11 8 6 7 9 9 11 14 16 19 20 20 20 19 18 17 16
7 3 4 1 1 2 2 3 5 3 5 6 4 14 22 15 10 11 11 9 7 7 5 15 23 14 8 9 14 22 25 25 24 21 21 22 26 29 29 30 29 28 28 28 28 28 27 26 25 23 21 20 20 20 19 18 18 17 16 15 13 12 10 10 10 10 11 12 12 12 13 12 12 12 12 12 12 11 11 10 9 6 6 7 8 8 9 11 13 16 20 22 21 20 19 18 17
8 3 3 1 2 2 2 4 3 2 6 6 7 17 23 20 6 7 11 8 4 8 9 17 21 8 10 13 13 27 28 27 26 23 23 25 28 30 30 30 28 28 28 28 28 28 27 26 24 23 22 21 21 20 20 19 18 17 16 15 13 11 10 11 10 10 12 13 13 12 12 12 12 12 12 12 12 11 10 8 6 6 7 7 7 7 8 9 10 12 17 21 22 21 21 20 19
7 2 3 1 2 3 3 4 2 2 5 4 13 19 18 20 9 7 2 8 9 13 11 13 16 2 11 18 19 32 31 30 29 25 27 27 29 29 29 29 28 29 28 28 28 27 26 25 25 23 23 22 22 21 20 19 19 18 16 15 13 11 10 10 10 10 12 12 12 12 12 11 12 13 13 12 12 10 9 7 6 7 8 8 8 9 9 9 10 11 14 18 22 22 21 21 20
4 2 2 1 3 4 4 5 3 3 6 7 16 19 11 15 9 8 5 14 18 15 7 7 11 6 11 19 24 35 31 32 31 28 30 29 30 29 29 29 29 29 27 28 27 27 26 26 26 24 24 22 21 20 20 20 19 18 17 15 13 11 11 11 10 10 12 12 12 12 11 11 11 13 13 12 11 9 8 7 8 8 9 10 10 10 10 10 11 12 13 16 19 22 22 21 21
4 2 3 3 4 5 5 6 5 3 6 8 15 17 8 8 6 7 8 12 14 11 6 7 7 3 13 20 28 35 32 35 33 31 31 30 31 30 30 29 30 30 28 27 25 26 26 26 25 24 23 21 21 20 19 19 19 19 17 16 14 13 13 12 12 12 12 13 13 12 11 10 10 11 12 11 9 9 8 8 9 9 10 10 11 11 11 11 12 12 12 13 16 20 22 21 21
7 3 2 5 5 5 4 4 5 5 8 12 18 19 9 6 5 1 1 3 6 7 7 10 12 12 18 25 32 32 32 36 33 32 31 30 32 31 31 31 32 31 28 27 25 25 25 25 24 22 21 20 20 19 19 19 18 19 17 16 15 15 14 14 13 13 13 13 13 12 12 12 10 10 10 10 9 9 10 9 9 10 10 10 10 10 10 11 12 12 13 13 15 17 20 21 21
10 6 2 7 5 5 8 8 11 13 15 13 16 18 14 15 10 4 3 2 1 3 6 11 16 21 26 32 33 31 33 35 34 33 30 30 31 30 32 32 33 32 29 27 25 25 24 23 23 21 19 18 18 19 19 18 18 18 17 16 16 16 15 15 13 12 14 14 14 13 13 13 12 11 10 10 10 11 11 11 10 9 9 9 9 9 9 10 11 13 14 14 15 16 18 19 19
7 8 5 6 3 5 11 11 15 19 20 16 15 16 17 20 12 5 8 5 2 6 13 16 21 29 34 35 34 33 34 35 35 32 30 32 31 30 31 31 32 31 29 27 25 25 23 22 21 19 18 17 17 17 17 18 17 17 17 17 17 16 15 15 13 12 14 16 16 14 14 14 13 11 10 11 11 11 11 10 10 9 8 8 8 9 9 10 12 13 14 14 15 15 17 17 18
2 5 9 9 4 6 12 15 17 21 21 18 14 12 16 17 9 8 13 6 6 13 18 20 25 31 36 38 35 35 35 35 36 33 32 33 32 30 27 28 30 30 29 26 25 24 22 21 18 17 17 17 17 16 16 16 17 17 17 17 17 16 16 16 14 13 15 18 17 15 15 14 13 11 10 10 10 10 10 9 9 9 9 9 8 8 9 10 12 13 14 14 14 14 15 16 16
3 5 8 13 10 8 14 19 21 23 20 15 13 16 19 15 7 11 16 10 12 16 18 20 24 28 34 39 38 36 35 35 35 34 33 32 31 28 25 27 30 31 30 26 25 23 21 19 17 16 16 16 16 16 16 16 16 17 17 17 16 16 15 16 16 16 18 19 17 16 15 13 12 11 9 9 10 10 9 8 8 8 9 10 9 7 8 10 11 12 11 11 12 13 13 14 16
6 5 6 14 16 13 19 23 25 27 22 22 24 20 18 14 9 7 14 16 15 12 17 21 24 27 33 38 37 36 35 34 33 30 28 28 25 21 20 24 27 29 27 25 24 22 20 18 17 18 17 17 16 16 16 16 16 16 17 16 15 15 15 15 15 17 19 19 17 16 15 13 12 10 9 8 9 9 9 8 8 8 8 9 8 7 7 9 9 9 9 9 10 11 11 12 14
6 7 8 12 16 17 22 24 24 27 25 27 25 15 19 23 12 4 11 16 12 11 17 21 25 28 32 37 36 36 35 31 30 23 21 24 21 19 19 18 21 23 21 21 21 18 18 19 19 19 19 18 16 17 17 17 16 16 16 15 15 15 14 13 14 18 19 19 17 16 14 12 11 9 9 8 8 8 8 8 7 8 8 8 8 7 7 7 6 7 7 8 8 8 10 10 11
6 10 12 10 13 17 21 21 21 24 22 21 14 9 22 25 10 3 8 12 13 17 20 23 27 29 31 34 35 35 32 27 25 20 20 22 20 21 19 14 15 18 16 16 16 16 18 20 20 20 19 17 17 17 17 17 16 16 15 15 16 16 13 12 16 18 18 18 16 16 14 12 10 10 9 7 6 7 7 7 7 7 7 7 7 7 7 5 5 5 6 7 7 7 8 9 9
9 10 12 12 14 18 19 18 21 22 18 16 10 9 22 19 5 3 6 13 16 21 23 25 28 29 30 31 32 32 27 24 22 20 20 20 21 24 19 13 15 17 15 14 12 14 17 19 20 20 18 17 17 17 18 17 16 16 16 17 18 16 13 13 17 19 17 16 15 15 13 11 11 9 8 6 6 6 6 6 5 5 5 6 7 7 6 4 4 4 5 6 5 6 7 8 8
11 9 9 11 12 14 15 14 19 17 10 15 13 11 19 12 3 5 11 17 19 24 26 26 27 27 27 27 28 28 25 25 23 21 24 24 24 24 20 15 18 21 18 15 14 14 16 18 19 19 18 16 17 18 18 17 16 16 17 18 18 17 15 15 18 18 17 16 16 15 13 11 10 9 7 7 7 7 6 5 4 4 5 6 6 6 6 5 5 5 5 5 5 6 7 7 7
9 5 5 9 8 8 10 10 14 11 5 12 10 6 11 5 5 6 15 22 21 24 24 23 23 23 23 24 25 25 25 26 24 23 26 26 25 23 19 17 19 23 21 18 17 17 17 19 20 19 18 18 17 18 18 16 16 17 17 18 18 17 17 18 19 18 17 17 15 14 12 11 10 9 9 9 7 6 5 4 3 3 3 4 5 5 6 6 6 6 5 5 5 6 7 7 7
6 3 1 5 7 6 7 7 10 8 5 10 7 2 8 6 12 10 16 25 22 23 23 21 21 20 21 23 22 20 24 27 25 25 26 25 24 21 19 19 19 21 22 21 20 20 21 21 21 20 20 19 18 18 17 16 16 17 18 18 17 17 17 19 20 19 17 16 14 13 13 12 11 10 11 9 7 6 5 4 3 4 3 3 4 5 6 6 7 7 7 6 5 7 7 7 7
3 3 2 2 2 5 7 4 4 4 5 8 10 4 8 7 14 13 18 27 26 23 22 22 22 22 22 21 18 17 22 28 26 23 23 23 23 21 21 22 21 22 23 23 23 22 22 22 21 21 21 21 20 19 18 17 17 18 18 18 18 17 17 19 21 19 17 15 13 13 13 13 12 11 11 10 8 6 6 6 5 4 4 4 5 6 6 7 7 7 8 7 6 7 7 7 7
2 2 4 3 2 5 9 7 4 5 5 6 10 4 6 6 15 14 18 27 26 23 21 21 23 24 23 19 17 20 23 27 26 22 21 23 23 22 22 21 21 23 22 22 22 21 22 23 21 21 22 21 21 20 18 18 18 18 18 18 18 18 18 18 18 17 15 15 13 13 14 13 12 12 11 10 8 7 7 7 7 6 5 5 6 6 7 7 7 7 8 8 6 6 7 7 7
3 1 4 4 3 4 6 6 4 7 5 2 5 5 3 4 13 13 18 28 24 22 20 21 24 23 22 19 20 25 25 26 27 24 23 23 23 22 21 19 20 21 19 19 21 22 24 24 22 21 21 22 22 20 19 19 19 19 18 18 18 18 18 16 15 15 15 15 15 14 14 14 13 12 11 9 8 8 8 8 8 6 6 6 6 7 7 8 8 7 7 7 7 6 7 6 6
4 2 2 3 3 3 4 5 6 2 1 3 3 4 5 6 11 9 17 29 22 20 20 22 25 21 20 22 23 26 29 28 26 25 24 22 23 22 21 19 20 22 20 21 23 24 24 23 22 22 22 23 22 21 21 20 19 20 19 18 18 18 17 16 15 15 15 16 15 14 14 13 12 11 10 9 8 8 9 8 7 6 7 7 7 8 8 8 7 7 7 7 8 7 6 6 6
1 1 2 3 3 4 4 4 4 5 3 4 4 4 8 8 11 8 14 27 21 21 25 25 23 21 23 26 26 27 29 29 26 26 24 22 23 23 22 21 22 23 23 24 26 25 24 23 23 23 23 23 23 22 22 21 21 21 20 19 18 18 18 16 14 14 15 15 14 13 12 12 11 10 9 8 8 8 8 8 6 6 7 7 7 7 8 8 7 7 7 7 8 8 7 7 7
4 4 3 3 4 5 7 6 5 5 4 6 6 7 9 8 11 8 12 25 20 20 24 23 20 22 27 29 30 30 29 28 27 26 24 22 23 23 23 23 23 24 24 25 26 26 25 24 24 25 24 24 24 24 23 22 23 23 21 20 19 18 18 17 14 13 14 13 13 12 11 11 9 9 8 8 8 8 8 7 6 6 7 7 7 8 8 8 8 7 8 8 9 9 8 8 7
2 2 3 4 4 7 9 6 5 5 3 7 7 8 10 10 12 8 11 21 16 18 20 20 22 25 30 31 31 33 30 28 27 26 24 23 23 23 25 25 23 24 24 25 25 26 26 25 25 26 25 25 25 24 24 23 24 24 22 21 19 17 18 16 13 13 13 13 12 10 10 10 9 8 8 8 8 8 7 7 7 8 8 8 8 8 8 9 8 7 8 8 9 9 9 9 8
2 3 5 5 4 7 9 5 8 6 2 6 7 6 11 11 9 4 12 17 13 19 19 19 23 26 33 35 32 32 31 29 29 27 26 25 24 25 26 26 25 25 24 24 25 26 27 25 25 25 25 25 24 23 24 24 23 22 21 19 17 17 17 14 13 12 12 11 10 9 10 9 8 8 8 9 9 8 7 7 7 8 9 9 8 9 9 9 8 8 9 9 9 9 9 9 10
3 2 2 5 4 6 8 6 7 3 3 6 8 7 10 6 1 1 7 11 17 28 30 30 31 29 34 36 33 33 34 32 32 30 29 27 26 26 26 27 27 26 24 24 26 27 27 26 25 26 24 24 23 23 23 22 21 20 18 16 15 16 15 13 12 11 11 10 10 10 9 9 9 9 9 10 10 8 8 8 9 9 10 9 8 8 9 9 9 9 9 10 10 10 10 10 11
3 2 1 5 4 2 4 5 5 2 3 6 6 6 6 4 1 3 4 4 16 26 31 35 38 38 39 38 35 37 38 36 34 32 31 28 27 27 27 28 28 26 25 25 27 27 27 27 27 26 25 24 23 23 23 21 19 17 15 14 15 15 14 13 13 12 12 11 11 11 10 9 10 10 10 11 10 10 10 10 10 11 11 10 9 8 8 9 9 9 9 10 9 10 11 12 13
4 5 5 5 6 6 7 6 5 4 4 2 2 4 5 5 3 5 7 2 11 18 23 25 29 32 34 33 34 37 38 37 36 34 32 29 28 28 28 28 27 26 25 26 27 27 27 27 26 25 25 24 24 23 22 21 17 15 15 15 17 17 15 15 15 14 14 13 12 12 11 10 10 10 11 11 11 11 11 11 11 11 11 11 10 9 8 9 9 9 9 9 8 8 9 11 13
4 5 9 10 9 10 9 7 5 5 5 2 3 4 5 6 6 6 5 4 8 11 16 18 20 24 26 29 32 35 36 35 34 32 31 30 29 29 28 28 27 25 24 26 28 27 27 27 26 25 25 25 24 23 21 19 16 14 16 18 19 19 18 17 16 15 15 14 13 13 13 12 11 11 11 10 10 10 10 10 10 10 10 9 9 8 7 7 8 8 8 8 9 8 8 9 11
5 5 10 12 11 9 9 7 2 1 6 4 3 1 3 5 5 7 5 5 9 8 10 13 19 22 25 30 33 36 36 34 33 30 30 30 30 30 29 28 26 25 24 27 28 27 28 28 26 25 25 24 23 22 20 18 16 14 15 18 19 18 18 17 16 15 15 15 15 14 14 13 12 11 10 9 9 10 10 10 9 9 8 8 8 8 7 6 6 7 7 8 9 9 9 8 9
5 6 8 9 9 9 9 6 4 3 4 4 3 4 2 3 3 5 3 6 9 8 8 10 14 18 23 27 31 35 35 34 32 30 31 31 30 30 29 27 25 24 25 28 30 28 28 27 25 24 24 23 22 21 19 18 16 14 15 17 16 15 16 17 17 17 17 16 15 14 13 13 12 10 8 8 9 10 11 11 10 9 8 8 8 8 8 7 7 8 7 8 9 9 9 8 8
8 7 7 8 8 9 8 5 4 2 1 5 6 2 3 3 3 3 3 5 8 10 9 9 12 17 22 26 30 32 32 32 31 30 31 29 26 25 26 25 23 24 26 29 30 29 28 26 24 24 23 23 22 20 19 18 17 16 17 17 16 15 15 17 18 18 18 16 15 13 12 11 11 8 5 7 10 10 10 10 9 8 7 6 6 7 8 8 8 8 8 8 9 9 9 8 8
8 6 5 4 2 3 3 4 3 1 1 4 8 0 3 2 4 2 1 2 8 10 7 6 11 17 21 25 28 28 27 28 28 28 29 24 20 22 24 24 23 25 27 28 28 27 28 27 25 25 25 24 22 21 22 21 18 18 19 19 17 16 16 16 18 19 18 16 15 14 12 10 9 7 5 8 11 9 8 8 7 6 5 5 6 6 7 8 8 8 7 7 8 8 8 8 8
3 4 4 2 3 3 3 2 3 3 1 6 8 3 4 0 4 3 3 3 6 8 7 7 10 15 20 22 25 27 27 28 28 26 24 20 19 22 23 24 25 26 27 27 26 25 27 28 26 26 26 25 24 24 24 22 20 19 19 20 17 15 15 16 18 19 17 16 15 14 13 11 9 7 6 9 12 10 8 7 6 5 4 5 6 7 7 8 8 8 7 7 8 8 7 7 8
3 3 3 1 4 4 4 4 3 3 4 6 7 3 3 3 3 4 4 5 6 10 10 11 11 11 14 18 22 25 25 25 24 22 20 18 20 23 24 25 26 26 26 25 24 24 26 27 27 27 28 27 26 25 23 22 23 19 18 20 17 13 13 15 17 17 16 16 14 14 13 11 10 8 6 8 11 11 9 8 6 5 4 4 6 7 8 8 8 8 8 8 8 8 7 7 7
5 3 4 3 2 3 3 2 0 2 5 4 4 2 2 1 4 4 6 7 6 8 6 9 12 12 14 19 22 22 20 17 16 16 16 17 21 24 25 26 26 25 25 23 22 24 26 28 28 27 28 27 26 25 22 23 23 19 18 20 17 14 13 14 16 16 15 15 13 12 12 10 10 8 7 9 10 10 10 8 6 4 2 3 6 8 9 9 9 8 8 8 8 8 8 7 7
6 5 4 4 2 1 2 3 0 2 4 3 4 2 1 2 4 4 8 7 5 8 6 8 9 11 20 26 27 24 21 17 14 15 15 16 22 25 25 26 26 25 24 22 21 22 25 28 28 27 27 26 26 25 23 24 23 18 18 19 18 16 15 13 14 15 15 14 12 11 10 9 9 8 7 10 10 10 10 8 6 3 1 2 7 9 9 10 9 9 9 9 8 8 7 7 7
5 5 6 5 4 4 3 3 2 3 3 3 4 2 2 2 3 6 7 3 7 12 11 14 13 14 17 20 22 22 21 19 17 15 14 16 21 24 24 26 25 24 24 22 22 22 24 27 27 26 26 26 26 25 25 25 21 18 19 20 18 17 15 13 13 13 13 13 12 11 10 9 9 8 8 11 11 10 9 7 5 3 1 4 8 9 10 11 10 10 10 9 8 7 6 7 6
2 2 6 3 4 5 2 3 5 3 1 2 3 1 2 3 2 6 5 6 9 9 7 10 13 13 11 12 15 17 18 18 17 15 14 17 20 21 23 25 24 23 23 22 22 22 24 28 27 25 24 25 26 25 24 23 20 17 19 19 19 17 15 13 13 13 12 11 11 10 9 8 8 8 9 12 12 10 9 7 5 3 2 6 9 9 10 10 11 11 11 10 10 8 7 7 6
1 2 3 3 4 7 4 1 0 2 3 0 1 0 3 2 2 5 7 8 9 9 7 5 2 4 7 12 15 14 14 14 14 14 15 17 18 17 19 22 22 22 21 21 21 21 24 27 27 25 25 26 27 26 24 22 20 19 19 19 19 17 14 12 12 12 12 11 11 10 8 8 8 8 9 12 13 11 9 7 5 3 4 7 9 9 9 9 9 10 10 11 11 10 8 7 6
4 2 5 2 3 5 4 2 2 4 2 2 1 2 2 1 1 4 7 8 8 8 7 7 7 5 5 7 6 8 10 11 12 12 13 14 14 13 15 16 18 19 19 19 18 18 22 25 25 25 25 25 25 26 25 23 21 21 21 20 20 17 14 12 12 12 12 11 11 10 8 8 9 8 8 11 13 12 10 7 5 4 6 8 9 9 9 8 9 9 9 9 11 11 11 9 8
4 3 3 3 3 1 1 2 1 1 2 1 2 1 2 2 2 3 4 4 5 6 5 6 7 8 9 13 11 2 5 7 9 9 10 9 10 11 12 13 14 15 16 17 15 14 16 19 21 23 24 22 22 25 25 23 22 22 23 22 19 17 15 14 13 13 13 13 11 10 9 10 11 10 10 11 12 12 10 8 6 7 8 9 10 10 9 9 9 9 9 9 10 11 13 12 11
4 3 2 2 3 4 2 2 3 3 3 2 1 1 2 3 3 3 4 3 1 3 2 3 4 7 8 7 10 5 4 7 7 10 11 10 11 12 10 10 12 13 13 14 13 11 11 14 17 20 21 19 20 23 24 23 24 24 22 20 18 18 17 15 14 14 14 13 12 10 10 12 13 12 12 12 12 11 10 9 9 10 10 10 11 11 11 11 11 11 11 11 10 10 12 13 13
2 3 2 1 1 3 2 1 2 4 4 3 2 0 4 4 2 4 4 2 2 3 2 3 3 6 10 6 2 2 4 6 8 10 11 9 8 8 5 7 11 12 11 10 11 12 12 13 15 16 17 19 21 23 23 23 24 21 19 19 19 18 16 14 13 14 14 13 11 10 10 13 14 13 14 14 13 12 12 12 12 11 11 12 12 12 12 11 11 11 11 12 11 10 11 12 14
5 3 3 3 2 4 3 1 1 2 4 3 4 2 5 4 1 2 0 2 3 5 7 5 6 5 9 9 9 7 6 7 7 8 8 7 4 4 4 8 12 11 9 10 12 13 13 14 15 14 16 18 20 21 23 23 22 20 19 20 19 17 15 14 14 14 15 13 11 10 10 12 13 13 15 15 15 15 15 15 14 14 13 13 12 12 11 11 10 9 9 10 9 9 10 10 12
Wind_Direction
153 147 148 148 148 143 144 133 129 326 76 263 253 241 251 231 236 281 274 279 313 306 358 345 195 135 119 115 127 116 61 80 187 142 169 144 145 150 146 154 164 169 168 164 165 166 166 167 166 163 161 160 158 156 156 153 149 144 137 132 125 119 117 120 131 145 152 151 152 155 159 158 154 154 158 163 162 162 159 159 161 159 151 143 137 129 122 123 125 125 125 125 124 123 120 115 110
153 151 148 149 151 145 174 129 98 326 47 283 259 191 247 280 202 241 248 233 226 211 70 72 94 97 95 94 90 75 42 17 197 124 125 141 149 152 149 156 164 169 168 166 167 166 166 165 164 162 161 160 158 157 155 152 149 144 138 134 128 123 121 123 129 139 147 150 152 156 154 147 145 149 151 158 163 165 164 159 157 154 149 144 139 131 127 127 129 130 130 130 129 126 121 115 108
154 151 146 149 149 136 137 93 69 129 123 253 264 225 252 291 221 249 240 245 247 187 115 85 79 78 87 70 33 51 54 36 129 129 131 149 154 154 157 160 164 169 168 167 168 166 165 163 162 161 161 160 159 157 154 153 149 145 140 136 133 130 126 126 130 136 142 148 153 156 154 144 142 147 147 154 164 165 162 158 152 149 146 143 139 132 131 132 133 134 133 132 131 128 121 115 108
155 149 148 151 143 119 99 76 138 137 198 231 272 260 239 231 240 267 254 293 282 199 162 113 72 70 101 95 86 83 88 130 138 136 140 155 156 153 160 163 166 169 167 167 168 165 164 161 160 160 160 161 160 158 155 154 150 146 142 139 139 138 133 130 131 136 141 146 152 155 155 150 150 154 156 158 158 153 150 153 148 143 141 140 138 131 131 134 135 135 134 134 131 126 119 114 109
157 150 152 148 130 121 90 96 130 154 218 201 246 261 237 225 243 291 294 323 308 212 181 139 117 92 98 89 103 113 142 156 146 143 146 157 159 153 160 166 168 169 167 167 166 164 163 160 159 160 161 162 161 160 157 154 151 147 144 142 142 142 138 136 135 138 143 147 150 153 155 155 158 162 163 159 152 147 148 152 146 137 135 138 137 131 131 135 135 135 135 133 130 125 119 116 112
158 153 154 144 101 60 116 188 208 227 230 188 229 270 266 255 266 305 311 330 325 212 195 165 147 116 96 66 91 129 140 150 151 153 151 158 162 157 162 167 169 169 167 165 165 163 161 159 159 161 163 163 162 161 158 155 151 147 147 146 145 147 144 141 143 145 147 150 150 149 152 155 159 162 164 161 155 152 152 149 144 140 140 140 138 133 133 136 136 135 134 132 130 126 122 119 116
160 158 162 150 358 40 130 219 229 241 250 205 225 273 274 278 284 300 317 332 346 208 218 180 135 115 98 89 104 122 140 149 151 155 155 158 161 160 164 168 169 168 165 164 163 161 159 158 160 163 164 164 163 161 158 156 153 150 151 150 148 151 151 147 150 155 154 153 150 145 146 150 151 154 159 162 161 154 148 145 144 146 147 144 142 137 135 139 138 137 136 134 132 128 126 123 121
164 164 142 123 3 12 134 248 244 231 251 236 244 267 270 278 282 289 300 302 291 256 200 165 131 101 73 116 102 128 159 150 148 155 156 157 159 161 166 168 169 166 163 162 160 160 159 159 161 164 165 165 163 161 159 157 156 155 155 152 152 154 156 153 154 162 161 157 152 145 148 150 145 148 149 151 158 152 146 146 147 150 151 151 148 141 137 141 142 140 140 138 135 131 130 128 127
165 165 118 121 153 326 282 277 268 243 250 264 266 265 270 276 282 285 274 268 254 216 187 182 137 82 117 95 89 132 152 152 150 153 155 155 158 162 167 169 169 164 161 160 159 160 159 161 164 165 166 165 163 162 161 160 159 159 157 157 158 157 160 159 158 165 166 162 157 152 152 153 149 150 150 151 155 150 146 146 146 148 148 150 150 145 141 143 145 145 144 142 139 136 134 134 134
165 176 144 106 133 303 283 274 264 260 258 250 259 266 271 275 279 275 266 274 232 182 192 208 183 121 124 92 90 130 152 158 154 151 155 157 160 163 166 169 169 162 159 159 160 160 161 162 165 166 166 165 165 164 165 163 162 163 163 163 164 164 165 165 163 165 169 166 161 158 155 154 155 155 156 158 155 144 145 146 143 145 145 146 147 147 144 143 148 149 148 146 143 141 139 140 142
167 191 141 97 129 250 253 271 270 271 273 265 274 271 273 274 275 269 261 267 198 170 184 187 129 119 112 93 104 136 154 160 157 152 157 160 162 164 165 167 166 162 159 160 161 162 162 163 166 167 168 167 167 167 168 166 166 169 169 169 171 171 171 171 167 167 171 166 158 156 154 154 158 159 157 158 151 141 143 143 140 142 142 142 143 147 147 144 150 153 153 151 147 145 144 146 148
175 177 103 112 178 205 223 253 269 282 287 286 274 275 288 284 275 259 240 218 162 174 191 168 142 127 100 92 131 151 155 158 159 150 157 162 164 163 162 163 162 162 161 161 162 163 163 164 167 169 170 169 169 171 171 170 172 174 174 174 175 175 175 173 170 170 169 161 155 151 150 152 157 157 156 156 150 143 143 145 145 146 145 144 144 148 151 149 151 156 157 155 152 149 148 151 154
183 147 105 140 194 189 222 235 272 300 296 278 251 292 311 291 264 238 194 142 157 182 216 168 148 131 91 125 146 159 157 158 156 148 157 163 163 161 160 161 161 163 162 163 163 164 165 167 169 169 170 171 172 173 173 174 177 179 179 179 178 178 178 174 171 171 166 154 146 144 146 149 154 156 155 156 153 151 149 150 152 154 153 150 151 151 155 155 154 158 161 160 156 154 154 156 158
187 163 130 198 233 188 220 238 271 290 276 276 286 322 325 312 272 220 161 130 177 198 195 161 153 127 111 137 151 164 161 160 154 148 157 160 161 159 159 160 161 163 163 164 165 166 167 169 170 169 171 173 176 175 177 180 182 183 181 182 180 181 180 173 170 171 163 149 144 146 148 151 156 160 159 159 158 155 153 153 155 155 156 153 155 152 152 156 155 158 162 163 161 160 161 161 162
198 179 117 141 316 280 232 222 236 225 269 281 309 332 338 336 354 143 140 137 199 187 158 157 159 133 156 164 164 170 167 162 153 150 153 155 159 158 160 160 161 164 164 166 168 169 169 170 170 170 173 175 178 178 180 183 185 185 180 182 182 182 180 171 172 171 162 153 153 155 155 158 163 167 163 159 158 156 153 154 156 152 151 148 143 137 136 142 148 150 157 164 166 166 166 166 166
205 203 71 111 260 261 226 219 194 215 272 292 316 335 349 336 5 85 133 158 140 154 150 155 170 204 185 175 167 170 168 161 154 151 151 153 159 158 161 162 164 166 166 169 169 171 170 171 173 173 176 177 180 179 182 185 185 183 180 184 182 181 177 173 179 177 169 163 163 161 158 160 164 169 165 159 158 158 155 152 149 139 133 126 119 120 127 133 139 140 148 161 169 171 171 170 170
200 183 75 241 229 232 219 210 179 204 277 307 321 343 3 326 348 63 99 137 130 147 142 152 195 259 192 177 167 165 163 161 156 153 153 154 160 159 163 165 166 167 167 170 170 173 173 175 178 178 179 180 182 181 183 185 185 183 182 185 182 181 179 180 191 190 183 176 173 167 159 154 157 164 166 165 162 158 153 143 136 125 118 117 118 122 128 132 139 145 151 157 165 173 175 175 173
189 133 150 218 227 229 197 189 210 230 296 313 315 334 355 320 346 83 100 111 117 133 106 128 181 217 174 170 163 161 160 162 159 158 157 155 159 158 163 168 169 168 167 168 170 174 177 179 181 182 183 183 185 186 187 188 187 184 183 186 187 189 188 191 200 200 195 186 180 171 159 153 152 156 158 162 157 148 143 133 125 118 117 121 126 130 133 138 144 150 154 153 156 169 176 178 176
186 137 156 224 219 226 209 212 267 290 298 303 303 313 322 311 315 197 123 87 111 105 79 106 118 123 147 156 157 160 162 163 163 165 163 161 162 159 163 170 172 170 168 167 168 175 180 182 184 187 188 187 189 191 191 192 190 186 187 191 195 198 196 196 204 208 203 193 183 171 161 159 155 151 152 156 148 139 134 126 119 117 121 125 131 136 138 142 145 146 148 148 148 158 171 177 179
195 181 197 238 226 263 276 271 281 290 291 294 297 304 308 308 305 244 204 118 110 146 138 122 123 135 145 152 156 160 162 164 168 170 169 169 170 167 166 168 171 171 168 168 170 175 182 185 187 190 193 193 194 195 195 196 195 194 195 197 204 206 201 199 205 211 207 197 185 173 167 168 165 159 161 158 145 137 132 124 122 121 121 124 131 134 139 142 141 142 141 143 145 151 162 171 177
193 185 215 241 220 272 273 277 283 288 287 280 287 302 303 306 313 223 176 120 324 231 181 164 156 153 152 156 159 162 163 165 170 173 173 173 176 173 168 166 168 169 167 170 172 176 183 186 188 191 196 200 200 200 202 203 202 203 201 202 209 207 205 204 205 213 210 198 186 177 174 176 175 170 167 159 144 137 133 127 125 122 118 119 125 128 134 139 137 138 139 142 146 150 156 164 173
217 209 236 250 244 264 275 287 288 287 287 285 290 298 290 301 325 184 172 152 220 210 194 182 172 164 161 162 163 165 167 168 172 176 176 175 176 173 168 165 165 168 169 171 175 179 183 187 190 194 199 204 205 206 207 210 210 209 206 205 208 208 209 209 213 223 213 198 186 180 180 181 178 174 169 160 147 139 136 131 130 128 126 123 125 132 137 137 137 138 142 146 148 150 155 162 170
248 262 251 259 255 247 277 285 288 288 287 288 282 285 290 302 314 202 191 213 226 211 200 186 176 172 167 166 166 169 171 174 176 178 179 176 172 170 170 167 164 167 170 172 177 181 183 185 191 197 202 206 209 212 212 215 215 213 212 209 210 213 212 214 224 226 209 196 187 182 182 180 175 173 173 166 151 141 137 132 134 136 135 131 132 141 142 139 140 143 148 154 155 155 156 161 167
221 268 263 268 265 257 275 279 282 284 278 278 280 287 293 286 287 226 210 235 248 231 202 181 171 169 167 167 169 172 177 179 178 177 176 170 165 163 163 161 162 166 166 171 176 178 180 182 189 198 202 206 211 214 214 218 217 216 215 213 213 212 214 225 227 212 198 192 186 183 182 177 173 174 178 170 148 139 137 138 142 142 143 144 143 144 146 147 150 154 160 164 164 164 166 166 168
215 244 259 269 271 267 275 277 278 280 277 281 284 284 276 270 268 225 222 237 234 204 188 175 167 165 168 170 171 175 178 175 174 170 147 143 151 154 150 149 161 168 162 167 172 172 179 182 188 198 199 199 206 210 213 215 215 216 215 215 212 209 219 229 212 194 192 190 183 181 179 174 174 178 177 164 147 144 145 148 148 147 150 156 158 156 157 161 170 177 179 176 173 175 177 176 173
214 226 249 260 268 271 275 276 276 277 279 281 284 274 272 275 277 247 221 207 189 177 175 171 166 167 172 174 176 177 173 166 169 160 129 132 145 141 134 132 156 169 164 166 168 170 184 188 190 197 195 194 199 202 207 209 211 215 213 213 208 209 221 219 198 191 193 191 183 179 176 174 176 178 173 160 152 155 155 155 155 157 160 162 168 168 165 171 184 190 187 183 185 189 186 181 179
246 243 255 260 266 271 272 273 273 276 280 271 259 259 272 280 285 252 191 175 174 166 163 167 167 170 176 178 179 176 167 163 168 163 150 149 146 133 127 139 159 166 168 170 169 177 188 194 197 197 193 191 194 197 203 204 206 210 210 210 208 211 219 207 194 193 194 190 185 183 179 175 177 176 172 163 162 167 164 163 162 170 174 171 171 169 173 185 191 188 182 183 194 198 191 186 185
264 273 280 279 276 275 267 265 269 270 277 264 241 242 274 286 258 218 177 172 171 162 158 164 169 173 179 180 180 174 167 170 176 175 166 160 156 149 144 157 164 161 166 171 170 181 192 200 203 198 190 189 192 197 202 201 201 205 208 210 211 213 214 202 193 194 194 190 186 185 182 178 178 181 180 174 175 178 175 171 169 180 183 174 174 175 183 194 196 190 185 187 199 198 193 193 196
276 278 292 295 306 296 258 246 256 246 247 261 235 243 286 289 251 230 167 169 168 160 157 161 169 173 179 182 178 174 172 176 179 176 167 162 165 164 161 170 173 166 168 173 175 184 195 202 203 196 188 187 192 197 200 199 199 204 207 210 212 213 209 201 195 193 191 188 185 182 182 182 183 186 189 184 181 180 182 185 180 185 180 171 180 187 190 198 200 198 198 199 205 202 196 197 200
280 262 248 303 326 308 256 234 242 228 245 248 191 222 281 260 259 242 166 168 162 154 158 159 166 173 181 182 176 174 175 178 181 178 171 167 168 170 173 175 178 176 171 176 186 194 199 199 196 192 186 185 191 196 195 196 198 200 204 207 208 207 201 195 192 190 188 187 185 181 181 186 188 189 192 192 189 186 188 191 186 184 178 176 189 196 198 204 204 204 208 206 204 206 203 196 196
291 291 286 308 288 280 290 292 227 209 260 213 160 201 260 260 264 238 174 170 164 156 161 160 164 177 182 180 173 166 171 180 185 186 181 174 170 174 177 173 177 182 179 182 193 200 202 199 193 187 182 182 188 191 189 191 193 195 200 204 203 199 192 188 188 188 188 188 188 184 181 186 190 194 197 199 201 195 190 189 189 188 187 187 188 192 196 198 200 205 212 210 204 206 205 198 194
3 279 288 317 212 265 303 304 212 208 259 189 158 220 265 261 263 240 177 172 169 158 160 162 169 179 177 175 167 152 162 182 188 192 191 180 172 173 177 178 181 185 188 192 197 202 203 200 194 184 178 180 184 184 183 186 189 192 199 203 201 196 188 187 189 189 190 188 189 187 185 189 195 199 201 204 203 196 190 189 192 196 199 197 188 187 189 189 193 201 208 207 204 207 205 197 194
360 197 255 284 260 299 317 307 252 219 243 225 175 207 269 262 265 252 177 175 172 154 155 166 174 177 170 167 161 152 160 179 186 190 192 183 174 173 177 184 188 190 194 200 202 204 204 200 193 182 177 179 180 179 180 184 189 192 198 200 199 196 191 190 189 188 190 188 189 192 194 199 201 202 203 201 197 192 189 189 193 201 203 196 186 185 187 188 188 191 200 199 196 204 204 194 190
320 359 259 261 257 283 297 307 310 302 238 265 234 209 245 257 272 270 173 176 171 148 156 171 175 171 161 160 158 160 166 172 181 188 189 185 177 176 181 189 194 196 199 202 205 206 204 199 190 182 179 180 178 177 180 186 189 192 196 196 195 196 193 189 187 189 191 192 194 197 200 204 205 207 203 198 195 192 190 190 197 205 201 194 189 188 191 194 189 184 189 193 189 190 197 195 193
221 269 260 284 284 267 263 273 296 349 2 252 284 270 261 266 270 276 168 176 171 152 166 174 168 159 156 158 162 170 172 173 187 194 191 187 180 181 187 193 197 200 201 203 205 205 201 196 188 182 180 180 178 178 182 187 189 191 194 195 196 195 191 186 188 193 193 194 197 201 206 209 212 213 204 200 205 200 193 193 200 201 194 195 199 199 199 198 192 183 179 186 186 178 185 192 193
184 195 181 241 280 275 264 260 255 297 312 267 270 258 264 266 258 266 173 177 168 155 168 165 153 151 153 156 167 179 181 186 196 197 191 186 184 187 191 196 200 201 204 204 205 204 199 194 188 182 180 180 179 181 185 188 190 191 194 197 197 194 187 185 193 197 194 195 199 205 210 210 213 211 205 207 205 199 195 197 199 194 189 192 198 201 201 197 188 179 174 181 185 177 179 182 184
243 234 228 245 262 277 272 273 271 273 287 269 252 240 259 253 253 267 169 168 159 155 163 156 152 153 156 162 174 183 186 194 198 194 189 187 188 191 193 198 200 202 206 205 204 204 199 194 189 182 179 180 181 183 187 190 191 192 194 196 197 191 186 189 196 197 197 199 200 204 206 203 201 197 198 197 187 187 192 191 190 187 182 181 185 187 193 196 187 178 176 178 186 186 182 174 171
252 250 276 281 250 268 276 277 276 266 190 262 262 249 261 252 259 272 149 156 162 163 162 158 158 158 163 172 180 183 186 193 193 190 188 189 189 189 192 197 199 202 206 206 205 203 199 195 190 183 181 182 184 186 190 192 194 195 196 198 196 187 184 193 200 200 201 197 193 193 194 191 181 178 181 175 172 177 183 183 183 181 177 178 184 184 188 196 192 185 180 175 180 187 186 177 166
237 237 285 287 266 282 288 280 278 264 151 261 275 259 268 277 281 72 136 166 177 172 168 164 163 163 169 176 180 181 185 190 190 188 188 190 191 190 192 194 197 201 204 204 204 202 198 194 190 186 183 184 185 189 193 194 193 194 198 199 192 183 185 196 201 202 199 186 178 176 177 172 164 168 171 168 170 172 172 176 178 176 175 179 186 188 188 192 193 191 185 179 179 183 186 181 171
225 201 219 267 271 292 286 288 289 259 202 251 283 278 289 332 68 43 16 179 171 170 170 169 169 171 175 180 181 181 185 188 186 186 188 191 192 193 194 194 195 199 203 202 200 200 198 193 191 187 184 183 186 190 192 192 191 191 193 189 185 188 194 197 194 194 189 179 173 169 167 164 161 168 170 169 171 170 170 172 173 171 169 171 174 180 182 181 186 189 187 186 187 192 192 185 178
236 204 197 242 260 241 242 277 303 299 275 244 342 332 330 339 350 19 5 78 144 155 160 167 175 177 178 179 182 185 187 185 182 184 189 191 192 193 196 197 197 198 200 200 199 200 196 193 193 188 183 182 186 190 190 190 191 192 192 186 185 190 192 190 188 186 181 175 173 170 168 168 169 173 173 171 171 172 173 171 171 172 170 171 172 174 177 179 183 183 183 182 187 200 200 193 188
269 222 203 217 239 242 245 278 331 356 314 305 39 353 325 337 4 16 357 69 115 145 154 164 175 174 175 178 183 188 188 185 184 186 188 189 191 195 198 200 200 197 196 198 199 199 196 195 194 187 183 182 185 189 188 190 193 192 195 193 189 188 188 189 188 184 177 173 173 171 171 173 175 175 172 171 172 175 178 177 179 181 180 183 180 175 174 182 189 185 182 180 181 189 195 201 201
268 234 204 210 224 235 243 263 302 349 274 278 62 84 275 322 6 3 348 104 125 147 155 165 171 172 178 182 184 186 186 187 188 188 187 189 193 197 200 202 202 197 194 196 199 199 197 197 194 185 181 182 185 188 187 190 195 194 196 195 191 188 189 187 183 181 176 171 171 169 167 167 166 166 162 160 168 175 177 179 183 185 185 187 186 183 178 183 191 186 185 184 184 186 188 200 209
247 228 190 204 221 223 225 225 207 219 270 309 14 117 148 303 336 5 25 122 134 148 157 169 175 177 181 185 187 187 187 189 190 188 187 190 196 199 201 203 200 195 195 197 198 198 197 199 194 181 178 181 186 189 189 192 195 193 190 189 188 187 188 186 180 177 173 170 169 164 160 159 157 160 156 153 162 168 166 165 170 174 175 177 183 187 185 186 189 187 188 183 183 188 188 195 210
242 222 185 209 215 207 207 193 192 225 354 314 308 68 102 293 300 14 55 134 158 171 174 177 180 182 185 188 190 190 191 192 193 192 189 193 198 198 200 201 196 194 197 198 197 197 197 197 190 177 177 184 186 187 190 193 194 193 191 190 188 183 184 185 178 174 173 173 172 167 165 164 159 158 160 161 163 162 159 159 161 163 167 171 177 181 179 180 185 189 191 185 184 189 187 185 197
236 197 182 218 206 165 170 146 151 73 57 262 272 227 105 282 290 338 9 182 187 186 183 185 186 186 191 195 196 196 197 196 198 198 196 198 199 195 198 198 193 195 199 199 199 198 194 193 187 178 180 185 185 186 190 193 192 194 198 198 194 186 185 184 178 177 179 178 176 174 174 171 163 164 173 171 170 168 165 166 167 169 173 177 178 176 172 172 178 185 188 187 188 191 188 178 180
200 142 186 253 356 38 63 89 101 79 275 255 256 224 116 198 272 224 198 217 197 184 177 191 198 196 198 203 203 202 201 200 202 203 202 201 197 192 193 195 195 198 201 201 201 198 193 191 185 181 184 187 187 188 191 194 192 195 200 200 197 193 191 190 186 185 184 179 177 176 174 171 171 180 185 177 178 181 181 184 191 192 184 181 181 175 169 169 174 178 179 181 184 183 183 177 174
151 106 160 230 319 10 34 1 54 97 247 263 268 257 105 112 243 232 244 263 207 190 189 188 190 198 208 211 207 205 205 205 206 205 202 197 189 185 187 193 198 200 203 202 199 195 191 189 186 186 188 188 189 188 191 196 195 196 199 196 197 198 197 197 194 190 184 179 179 178 176 178 183 190 192 187 186 187 191 196 202 198 173 169 182 176 168 169 169 168 167 171 175 175 177 175 169
147 118 96 90 308 347 4 307 81 179 238 264 289 290 94 162 236 245 288 289 212 195 207 189 176 180 200 210 211 213 216 219 220 212 204 193 185 184 186 193 198 201 203 203 198 192 187 185 188 191 190 188 189 188 192 198 199 199 196 194 197 199 201 201 197 192 187 185 187 185 186 191 197 204 205 199 191 185 193 200 196 190 169 171 184 178 171 170 170 168 167 173 178 177 174 170 165
155 156 137 128 128 72 292 271 251 247 238 266 307 336 86 273 280 293 304 296 176 149 157 174 181 198 203 202 204 211 218 226 232 221 208 195 187 186 188 192 198 200 201 202 199 192 186 184 189 192 189 188 189 189 193 199 201 201 199 200 203 203 205 205 198 195 192 193 197 198 202 209 218 227 214 197 188 182 191 199 195 193 209 189 183 181 179 176 176 176 176 179 181 178 171 167 169
172 163 136 140 152 156 220 224 185 227 240 299 326 9 133 206 297 313 312 331 114 128 153 172 193 226 227 208 200 206 212 220 229 221 209 202 193 190 191 193 199 202 202 202 201 195 186 184 190 193 190 189 190 191 197 201 201 202 204 207 209 208 212 208 196 195 197 200 204 207 214 221 223 219 195 181 178 181 190 199 208 227 221 174 170 174 180 181 184 185 181 179 174 171 175 174 171
212 140 109 145 184 154 162 193 174 176 153 352 345 34 195 206 293 336 2 44 75 93 122 158 183 214 227 209 201 203 207 216 225 218 208 203 196 193 195 196 200 204 204 204 204 200 190 186 190 194 192 190 190 192 196 197 197 201 204 207 210 212 213 207 197 197 204 209 212 211 213 213 205 191 181 176 176 184 197 205 220 242 199 168 161 162 169 176 184 188 186 181 171 166 176 180 174
199 131 158 207 170 129 116 170 140 86 130 291 15 133 301 327 359 5 33 46 47 56 59 71 123 214 218 212 203 199 206 214 219 216 209 204 199 197 200 200 202 205 209 211 209 203 193 188 191 194 195 194 192 193 193 189 192 202 207 208 211 212 209 205 203 204 210 214 211 210 212 207 196 189 187 185 182 187 199 212 226 226 174 159 157 157 161 165 171 177 182 181 176 173 175 169 166
129 182 205 186 91 97 107 130 17 38 153 258 17 162 266 30 59 351 34 49 43 43 48 48 32 15 328 291 246 198 199 200 199 199 199 203 207 208 205 204 207 209 213 216 214 207 197 194 197 197 198 197 189 184 186 186 191 202 208 207 206 208 206 206 209 210 212 209 202 204 214 211 203 202 198 192 191 194 201 209 211 181 152 143 143 147 153 158 158 158 163 168 171 176 178 167 153
126 170 172 104 109 149 75 129 127 94 173 277 359 169 209 167 216 329 19 35 50 57 62 60 49 50 30 356 347 18 141 147 159 166 172 190 208 216 213 209 211 215 216 215 215 209 199 200 204 200 198 197 184 177 181 187 190 196 201 201 202 204 204 206 210 212 212 204 196 199 207 203 198 198 197 193 194 196 197 193 179 161 147 140 137 136 140 144 142 138 138 143 154 171 182 176 157
48 73 31 32 132 159 179 155 152 154 167 185 56 7 272 223 248 310 306 291 87 99 105 102 104 113 100 27 1 13 88 117 143 159 163 176 191 202 214 215 215 221 222 220 217 210 200 201 207 203 199 198 191 184 185 188 189 189 193 198 201 201 203 207 210 211 207 199 195 198 197 189 184 184 188 190 191 188 183 174 167 160 151 146 141 136 134 133 131 129 127 128 136 157 177 177 165
65 67 48 357 62 118 144 130 119 129 147 168 141 187 268 250 280 309 293 251 164 144 86 40 56 124 142 152 164 201 194 174 166 161 159 165 171 175 196 216 217 217 218 223 223 218 213 211 214 210 199 197 198 194 191 192 191 187 189 197 199 198 201 207 210 209 203 194 194 195 186 180 179 180 182 184 183 176 170 167 166 162 157 152 146 140 137 135 134 133 129 128 130 141 159 168 169
139 130 144 164 148 123 130 239 292 107 124 161 149 178 264 275 316 322 28 149 152 110 88 46 13 69 119 143 152 161 180 174 154 145 155 170 153 120 155 204 209 206 202 208 214 214 212 212 214 212 200 196 199 197 195 195 191 186 188 194 196 197 202 207 208 202 195 191 192 188 179 176 178 179 179 179 176 170 167 168 166 163 160 156 152 150 147 146 146 145 141 138 137 140 145 151 162